(331794) = 2003 MG6 = 2008 UY213

Discovered at Haleakala on 2003-06-26 by NEAT.

Orbit

Orbit type: Main Belt

Note: WebGL enabled browser required.

epoch2024-03-31.0
epoch JD2460400.5
perihelion date2021-09-23.87533
perihelion JD2459481.37533
argument of perihelion (°)55.14399
ascending node (°)260.49886
inclination (°)7.49979
eccentricity0.2419637
perihelion distance (AU)2.0689090
Tisserand w.r.t. Jupiter3.3
ΔV w.r.t. Earth (km/sec)9.4
semimajor axis (AU)2.7293006
mean anomaly (°)200.90984
mean daily motion (°/day)0.21858820
aphelion distance (AU)3.390
period (years)4.51
P-vector [x]0.70807226
P-vector [y]-0.68297910
P-vector [z]-0.17936897
Q-vector [x]0.69430664
Q-vector [y]0.62706381
Q-vector [z]0.35317030
absolute magnitude16.02
phase slope0.15
uncertainty0
referenceMPEC 2024-E23
observations used338
oppositions14
arc length (days)7555
first opposition used2003
last opposition used2024
residual rms (arc-secs)0.67
perturbers coarse indicatorM-v
perturbers precise indicator003Ek
first observation date used2003-06-26.0
last observation date used2024-03-02.0
computer nameMPCLINUX
JD of orbit computation2456670.955954
perihelion JD uncertainty (days)1.2853E-04
argument of perihelion uncertainty (°)7.0894E-05
ascending node uncertainty (°)5.6415E-05
inclination uncertainty (°)1.0064E-05
eccentricity uncertainty 1.1252E-07
perihelion distance uncertainty (AU)3.0848E-07
Minimum Orbit Intersection Distances (in AU)
for orbit epoch: 2460400.5, reference: E2024-E23
Mercury1.65209
Venus1.35417
Earth1.06571
Mars0.70518
Jupiter1.94028
Saturn5.7708
Uranus15.1389
Neptune26.8358

Observations

343 total observations over interval: 2003 06 26.51363 – 2024 03 02.453587
These data are available for download (format description).

Date (UT) J2000 RA J2000 Dec Magn Location Ref
2003 06 26.51363 20 16 12.18 -12 58 32.6 19.9   608 – Haleakala-AMOS MPS 81915
2003 06 26.52414 20 16 11.88 -12 58 29.4 20.2   608 – Haleakala-AMOS MPS 81915
2003 06 26.53485 20 16 11.52 -12 58 26.1 19.7   608 – Haleakala-AMOS MPS 81915
2003 06 28.30133 20 15 19.51 -12 49 50.2 18.7   704 – Lincoln Laboratory ETS, New Mexico MPS 81915
2003 06 28.31146 20 15 19.11 -12 49 48.2 18.9   704 – Lincoln Laboratory ETS, New Mexico MPS 81915
2003 06 28.33153 20 15 18.47 -12 49 42.6 18.8   704 – Lincoln Laboratory ETS, New Mexico MPS 81915
2003 06 28.34149 20 15 18.09 -12 49 40.3 19.0   704 – Lincoln Laboratory ETS, New Mexico MPS 81915
2003 07 05.29623 20 11 05.55 -12 19 06.0 18.8 V 691 – Steward Observatory, Kitt Peak-Spacewatch MPS 82142
2003 07 05.32615 20 11 04.25 -12 18 59.0 18.7 V 691 – Steward Observatory, Kitt Peak-Spacewatch MPS 82142
2003 07 05.36130 20 11 02.69 -12 18 50.5 18.9 V 691 – Steward Observatory, Kitt Peak-Spacewatch MPS 82142
2003 07 25.26557 19 54 51.40 -11 22 07.0 18.4   704 – Lincoln Laboratory ETS, New Mexico MPS 82428
2003 07 25.27565 19 54 50.82 -11 22 06.1 18.9   704 – Lincoln Laboratory ETS, New Mexico MPS 82428
2003 07 25.28597 19 54 50.34 -11 22 07.1 18.5   704 – Lincoln Laboratory ETS, New Mexico MPS 82428
2003 07 25.29621 19 54 49.72 -11 22 05.1 19.4   704 – Lincoln Laboratory ETS, New Mexico MPS 82428
2003 07 25.30639 19 54 49.13 -11 22 03.7 18.8   704 – Lincoln Laboratory ETS, New Mexico MPS 82428
2007 05 16.27496 14 02 59.99 -20 25 55.3 19.0 R 699 – Lowell Observatory-LONEOS MPS 264566
2007 05 16.29690 14 02 59.10 -20 25 43.9   699 – Lowell Observatory-LONEOS MPS 264566
2007 05 16.31885 14 02 57.90 -20 25 35.2   699 – Lowell Observatory-LONEOS MPS 264566
2007 05 16.34079 14 02 56.78 -20 25 27.1   699 – Lowell Observatory-LONEOS MPS 264566
2008 09 28.39156 02 05 52.51 +23 36 25.3 19.2 V G96 – Mt. Lemmon Survey MPS 264566
2008 09 28.39843 02 05 52.22 +23 36 24.1 19.4 V G96 – Mt. Lemmon Survey MPS 264566
2008 09 28.40521 02 05 51.93 +23 36 22.8 19.3 V G96 – Mt. Lemmon Survey MPS 264566
2008 09 28.41199 02 05 51.68 +23 36 21.6 19.3 V G96 – Mt. Lemmon Survey MPS 264566
2008 10 06.38932 02 00 02.95 +23 05 20.0 19.4 V 703 – Catalina Sky Survey MPS 264566
2008 10 06.39542 02 00 02.70 +23 05 18.4 19.1 V 703 – Catalina Sky Survey MPS 264566
2008 10 06.40147 02 00 02.37 +23 05 16.9 19.2 V 703 – Catalina Sky Survey MPS 264566
2008 10 06.40757 02 00 02.12 +23 05 15.1 18.7 V 703 – Catalina Sky Survey MPS 264566
2008 10 24.28957 01 44 23.02 +21 10 11.1 19.0 V 703 – Catalina Sky Survey MPS 264727
2008 10 24.30132 01 44 22.41 +21 10 05.1 18.8 V 703 – Catalina Sky Survey MPS 264727
2008 10 24.31302 01 44 21.76 +21 10 00.3 18.9 V 703 – Catalina Sky Survey MPS 264727
2008 10 24.32476 01 44 21.04 +21 09 55.1 19.0 V 703 – Catalina Sky Survey MPS 264727
2008 10 29.38044 01 40 00.15 +20 29 43.0 19.1 V G96 – Mt. Lemmon Survey MPS 264727
2008 10 29.38829 01 39 59.76 +20 29 39.1 18.9 V G96 – Mt. Lemmon Survey MPS 264727
2008 10 29.39608 01 39 59.36 +20 29 35.4 19.1 V G96 – Mt. Lemmon Survey MPS 264727
2008 10 29.40381 01 39 58.96 +20 29 31.4 19.0 V G96 – Mt. Lemmon Survey MPS 264727
2008 11 03.26946 01 36 06.87 +19 49 42.4 19.2 V 703 – Catalina Sky Survey MPS 264566
2008 11 03.27554 01 36 06.58 +19 49 38.8 19.2 V 703 – Catalina Sky Survey MPS 264566
2008 11 03.28169 01 36 06.22 +19 49 37.1 19.1 V 703 – Catalina Sky Survey MPS 264566
2008 11 03.28770 01 36 05.97 +19 49 32.8 19.0 V 703 – Catalina Sky Survey MPS 264566
2008 11 19.15756 01 26 52.47 +17 45 07.9 20.1 V 703 – Catalina Sky Survey MPS 265188
2008 11 19.16477 01 26 52.33 +17 45 04.5 19.9 V 703 – Catalina Sky Survey MPS 265188
2008 11 19.17196 01 26 52.11 +17 45 01.7 19.9 V 703 – Catalina Sky Survey MPS 265188
2008 11 19.17913 01 26 51.97 +17 44 57.8 19.5 V 703 – Catalina Sky Survey MPS 265188
2008 11 21.20080 01 26 08.38 +17 30 49.4 19.6 C 704 – Lincoln Laboratory ETS, New Mexico MPS 287953
2008 11 21.22625 01 26 07.82 +17 30 38.5 19.5 C 704 – Lincoln Laboratory ETS, New Mexico MPS 287953
2008 11 21.23944 01 26 07.55 +17 30 32.3 19.4 C 704 – Lincoln Laboratory ETS, New Mexico MPS 287953
2008 11 21.25249 01 26 07.19 +17 30 26.9 19.2 C 704 – Lincoln Laboratory ETS, New Mexico MPS 287953
2010 01 12.29650 07 44 01.68 +15 19 51.0 20.6 V G96 – Mt. Lemmon Survey MPS 310157
2010 01 12.30243 07 44 01.24 +15 19 51.7 21.2 V G96 – Mt. Lemmon Survey MPS 310157
2010 01 12.30837 07 44 00.96 +15 19 51.6 20.9 V G96 – Mt. Lemmon Survey MPS 310157
2010 01 12.31429 07 44 00.63 +15 19 52.5 20.3 V G96 – Mt. Lemmon Survey MPS 310157
2012 05 06.60596 19 51 40.225 -19 13 41.61 19.6 z F51 – Pan-STARRS 1, Haleakala MPS 423680
2012 05 06.61181 19 51 40.525 -19 13 38.94 19.7 z F51 – Pan-STARRS 1, Haleakala MPS 423680
2012 06 14.38757 20 05 13.45 -15 09 20.8 18.4 V G96 – Mt. Lemmon Survey MPS 426473
2012 06 14.39477 20 05 13.34 -15 09 18.2 18.3 V G96 – Mt. Lemmon Survey MPS 426473
2012 06 14.40196 20 05 13.23 -15 09 15.9 18.6 V G96 – Mt. Lemmon Survey MPS 426473
2012 06 14.40914 20 05 13.12 -15 09 13.5 18.5 V G96 – Mt. Lemmon Survey MPS 426473
2012 06 14.43449 20 05 12.69 -15 09 05.1 18.4 V G96 – Mt. Lemmon Survey MPS 426473
2012 06 14.43904 20 05 12.58 -15 09 03.6 18.4 V G96 – Mt. Lemmon Survey MPS 426473
2012 06 14.44359 20 05 12.51 -15 09 02.2 18.4 V G96 – Mt. Lemmon Survey MPS 426473
2012 06 14.44809 20 05 12.44 -15 09 00.5 18.4 V G96 – Mt. Lemmon Survey MPS 426473
2012 06 23.31744 20 01 52.89 -14 23 10.0 19.2   704 – Lincoln Laboratory ETS, New Mexico MPS 427806
2012 06 23.32770 20 01 52.54 -14 23 06.1 19.6   704 – Lincoln Laboratory ETS, New Mexico MPS 427806
2012 06 23.33798 20 01 52.17 -14 23 04.3 19.0   704 – Lincoln Laboratory ETS, New Mexico MPS 427806
2012 06 23.34914 20 01 51.79 -14 23 00.7 19.1   704 – Lincoln Laboratory ETS, New Mexico MPS 427806
2012 06 23.35945 20 01 51.43 -14 22 57.9 19.6   704 – Lincoln Laboratory ETS, New Mexico MPS 427806
2012 06 23.37286 20 01 51.06 -14 22 54.6 18.4 V G96 – Mt. Lemmon Survey MPS 427806
2012 06 23.37970 20 01 50.80 -14 22 52.6 18.3 V G96 – Mt. Lemmon Survey MPS 427806
2012 06 23.38663 20 01 50.59 -14 22 50.8 18.3 V G96 – Mt. Lemmon Survey MPS 427806
2012 06 23.39358 20 01 50.34 -14 22 48.7 18.2 V G96 – Mt. Lemmon Survey MPS 427806
2012 07 16.58643 19 44 41.24 -12 56 06.4 18.0 V E12 – Siding Spring Survey MPS 428637
2012 07 16.59863 19 44 40.56 -12 56 04.7 18.0 V E12 – Siding Spring Survey MPS 428637
2012 07 20.21581 19 41 31.00 -12 47 33.2 18.4 G G45 – Space Surveillance Telescope, Atom Site MPS 1609615
2012 07 20.29185 19 41 26.87 -12 47 23.3 18.6 G G45 – Space Surveillance Telescope, Atom Site MPS 1609615
2012 07 20.36597 19 41 22.79 -12 47 13.3 18.2 G G45 – Space Surveillance Telescope, Atom Site MPS 1609615
2012 07 20.43594 19 41 18.94 -12 47 03.1 18.6 G G45 – Space Surveillance Telescope, Atom Site MPS 1609615
2012 07 21.27116 19 40 35.88 -12 45 18.6 18.4   704 – Lincoln Laboratory ETS, New Mexico MPS 428909
2012 07 21.28277 19 40 35.21 -12 45 14.5 18.7   704 – Lincoln Laboratory ETS, New Mexico MPS 428909
2012 07 21.29418 19 40 34.57 -12 45 13.7 19.2   704 – Lincoln Laboratory ETS, New Mexico MPS 428909
2012 07 21.30568 19 40 34.04 -12 45 11.5 18.8   704 – Lincoln Laboratory ETS, New Mexico MPS 428909
2012 07 21.31717 19 40 33.40 -12 45 08.9 18.5   704 – Lincoln Laboratory ETS, New Mexico MPS 428909
2012 07 28.37344 19 34 41.275 -12 32 39.96 18.0 i F51 – Pan-STARRS 1, Haleakala MPS 429018
2012 07 28.38444 19 34 40.720 -12 32 39.02 17.9 i F51 – Pan-STARRS 1, Haleakala MPS 429018
2012 07 28.39468 19 34 40.199 -12 32 38.16 18.0 r F51 – Pan-STARRS 1, Haleakala MPS 429018
2012 07 28.40453 19 34 39.705 -12 32 37.29 18.0 r F51 – Pan-STARRS 1, Haleakala MPS 429018
2012 08 10.32856 19 26 11.199 -12 20 44.48 19.0 g F51 – Pan-STARRS 1, Haleakala MPS 430001
2012 08 10.33909 19 26 10.852 -12 20 44.23 19.0 g F51 – Pan-STARRS 1, Haleakala MPS 430001
2012 09 04.301251 19 23 43.959 -12 21 33.00 18.8 y F51 – Pan-STARRS 1, Haleakala MPS 431305
2012 09 04.312049 19 23 44.163 -12 21 33.30 19.0 y F51 – Pan-STARRS 1, Haleakala MPS 431305
2013 11 28.39877 05 31 14.35 +23 54 36.2 19.6 V G96 – Mt. Lemmon Survey MPS 489852
